Location: Kutna Hora
(49.9500°N, 15.2670°E)
Time: 09:43:06
(UTC+02:00)

ISS - Pass Details

Date: 27 May 2019
Orbit: 407 x 419 km, 51.6° (Epoch: 26 June)

Event Time Altitude Azimuth Distance (km) Brightness Sun altitude
Rises 23:18:22 0° 287° (WNW) 2,361 0.7 -15.5°
Reaches altitude 10° 23:20:29 10° 285° (WNW) 1,498 -0.4 -15.6°
Maximum altitude 23:23:48 62° 204° (SSW) 474 -3.8 -15.8°
Enters shadow 23:24:50 39° 140° (SE) 646 -3.3 -15.9°
